User: anonymous   Login
Location: Bergen
(60.3910°N, 5.3250°E)
Time: 11:32:42
(UTC+01:00)
Language:

Cosmos 1943 - Orbit

View from above orbital plane
View from above orbital plane
View from above satellite
View from above satellite

Ground track
Ground track

The orbit data is extracted from the following two-line orbital elements,

1 19119U 88039A   16341.54074157 -.00000269  00000-0 -11383-3 0  9995
2 19119  71.0011 146.3379 0012195 339.4656  76.5213 14.15077900474845
Epoch (UTC): 06 December 2016 12:58:40
Eccentricity: 0.0012195
inclination: 71.0011°
perigee height: 833 km
apogee height: 851 km
right ascension of ascending node: 146.3379°
argument of perigee: 339.4656°
revolutions per day: 14.15077900
mean anomaly at epoch: 76.5213°
orbit number at epoch: 47484

The dashed part of the orbit path shows where the satellite is in the earth's shadow,  

DLR